Temperature
9 9 9 9 9 9 9 9 9 10 10 10 10 10 10 10 10 10 10 10 10 11 11 11 11 11 10 10 10 10 10 10 10 10 10 10 10 10 10 10 10 10 10
9 9 9 9 9 9 9 9 9 9 9 10 10 10 10 9 9 10 10 10 10 10 10 10 10 10 10 10 10 10 10 10 10 10 10 10 10 10 10 10 10 10 10
8 8 8 8 8 8 8 9 9 9 9 9 9 9 9 9 9 9 9 9 10 10 10 10 10 10 10 9 9 9 9 9 9 9 9 9 10 10 10 10 10 10 10
8 8 8 8 8 8 8 8 8 8 8 8 8 9 9 9 9 9 9 9 9 9 9 9 9 9 9 9 9 9 9 9 9 9 9 9 9 9 9 9 9 9 9
7 7 7 7 7 7 8 8 8 8 8 8 8 8 8 8 8 8 8 8 9 9 9 9 9 8 8 8 8 8 8 8 9 8 8 9 9 9 9 9 9 9 9
6 6 7 7 7 7 7 7 7 7 7 7 7 7 8 8 8 8 8 8 8 8 8 8 8 8 8 8 8 8 8 8 8 8 8 8 8 8 8 8 8 8 8
6 6 6 6 6 6 6 6 6 6 6 6 7 7 7 7 7 7 7 7 7 7 7 7 7 8 8 8 8 8 7 8 8 8 8 8 8 8 8 8 8 8 8
5 5 6 6 6 6 6 6 6 6 6 6 6 5 5 6 6 6 6 7 7 7 7 7 7 7 7 7 7 7 7 7 7 7 7 7 7 7 7 7 7 7 7
4 5 5 5 5 5 5 5 5 5 5 5 5 5 5 5 5 5 6 6 6 6 6 6 6 6 6 6 6 6 6 6 6 6 6 6 6 6 6 7 7 6 6
4 4 4 4 5 5 5 5 5 5 5 5 4 4 4 4 4 4 5 5 5 5 5 5 5 6 6 6 6 6 6 6 6 6 6 6 6 6 6 6 6 6 6
3 3 3 4 4 4 4 4 4 4 4 4 4 4 4 4 4 4 4 4 4 5 5 5 5 5 5 5 5 5 5 5 5 5 5 5 5 5 5 5 5 5 5
3 3 3 3 3 3 3 3 3 3 3 3 3 3 4 3 3 3 3 3 4 4 4 4 4 4 4 4 5 5 5 5 4 4 4 4 5 4 4 4 5 5 5
3 3 3 3 3 3 3 3 3 3 3 3 3 3 3 3 3 3 3 3 3 3 3 3 3 4 4 4 4 4 4 4 4 4 4 4 4 4 4 4 4 4 4
2 2 2 2 2 2 2 2 2 2 2 2 2 2 2 3 2 3 2 2 2 2 2 3 3 3 3 3 3 3 3 3 3 3 3 3 3 3 3 3 3 3 3
1 2 2 2 2 2 2 2 1 2 2 2 2 2 2 2 2 2 2 2 2 1 1 2 2 2 2 2 2 2 3 3 3 2 2 2 2 2 3 3 3 3 3
1 1 1 1 1 1 1 1 1 1 1 1 1 1 1 2 2 2 1 1 1 1 1 1 1 2 2 2 2 2 2 2 2 2 2 2 2 2 2 2 2 2 2
1 1 1 1 1 1 1 1 1 1 1 1 1 1 1 1 1 1 1 1 1 1 1 1 1 1 1 1 1 1 1 1 1 1 1 1 1 1 1 1 2 2 2
0 0 0 0 0 0 0 0 0 0 -0 0 0 0 0 0 0 0 0 0 0 0 0 0 0 0 0 0 0 1 1 1 1 1 1 1 1 1 1 1 1 1 1
-1 -1 -0 -0 -0 -0 -0 -0 -0 -0 -1 -1 -1 -0 -0 -0 -0 -1 -1 -0 -0 -1 -0 -0 -0 -0 -0 -0 -0 -0 -0 -0 -0 0 -0 -0 -0 0 0 0 0 0 0
-1 -1 -1 -1 -1 -1 -1 -1 -1 -1 -1 -1 -1 -1 -1 -1 -1 -1 -1 -1 -1 -1 -1 -1 -1 -1 -1 -1 -1 -1 -1 -1 -1 -1 -1 -1 -1 -1 -1 -1 -0 -0 -0
-2 -2 -2 -2 -2 -2 -2 -2 -2 -2 -2 -2 -2 -2 -2 -2 -2 -2 -2 -2 -2 -2 -2 -2 -2 -2 -2 -2 -1 -1 -2 -1 -1 -1 -1 -1 -1 -1 -1 -1 -1 -1 -1
-3 -3 -3 -2 -2 -2 -2 -3 -3 -3 -3 -3 -3 -3 -3 -2 -2 -3 -3 -3 -3 -3 -3 -3 -3 -2 -2 -2 -2 -2 -3 -2 -2 -2 -2 -2 -2 -2 -2 -2 -2 -2 -2
-3 -3 -3 -3 -3 -3 -3 -3 -3 -4 -3 -3 -3 -3 -3 -3 -3 -3 -3 -3 -3 -3 -3 -3 -3 -3 -3 -3 -3 -3 -3 -3 -3 -3 -3 -3 -3 -3 -2 -2 -2 -2 -2
-4 -4 -4 -4 -4 -4 -4 -4 -4 -4 -4 -4 -4 -4 -4 -4 -4 -4 -4 -4 -4 -4 -4 -4 -4 -4 -4 -4 -4 -4 -4 -4 -4 -4 -4 -4 -3 -3 -3 -3 -3 -3 -3
-5 -5 -5 -5 -5 -4 -4 -5 -5 -5 -5 -5 -5 -5 -5 -5 -5 -5 -5 -5 -4 -4 -5 -5 -5 -5 -4 -4 -5 -5 -5 -5 -4 -4 -4 -5 -4 -4 -4 -4 -4 -4 -4
-6 -5 -5 -5 -5 -5 -5 -5 -6 -6 -5 -5 -5 -5 -5 -5 -5 -6 -6 -5 -5 -5 -5 -5 -5 -5 -5 -5 -5 -5 -5 -5 -5 -5 -5 -5 -5 -5 -5 -5 -5 -4 -4
Wind_Speed
3 3 3 2 2 2 2 1 2 2 3 3 3 3 3 4 5 6 6 7 6 6 6 6 6 6 7 7 8 7 7 7 7 7 7 7 6 6 7 7 7 7 7
3 3 3 3 2 2 1 1 2 2 2 2 3 3 3 4 5 6 5 5 5 5 5 4 5 6 6 7 7 7 7 7 7 7 7 7 7 7 7 7 6 6 6
3 3 2 2 2 2 1 1 2 2 2 3 3 3 3 4 4 4 5 5 4 4 5 5 5 6 6 7 7 7 7 7 7 7 6 7 7 7 7 7 6 6 5
3 3 2 1 2 2 1 1 1 1 1 2 2 2 2 3 3 3 4 4 4 4 4 5 6 6 7 7 7 7 7 6 6 6 6 6 6 6 6 6 6 5 5
3 3 2 2 1 1 1 1 1 1 1 1 1 2 2 2 2 2 3 4 4 5 4 4 5 5 6 6 6 6 6 6 6 6 6 5 4 4 4 4 4 4 4
3 3 2 2 1 1 1 1 1 2 1 1 1 1 1 1 2 2 2 3 4 4 5 4 4 4 5 5 5 4 5 5 5 5 5 5 4 3 3 3 3 4 4
3 3 2 2 1 1 1 1 2 2 1 1 2 1 1 1 1 1 2 3 3 4 4 4 4 4 3 3 3 3 3 3 3 4 4 4 4 3 3 3 3 3 3
2 2 2 1 1 1 2 2 2 1 1 1 1 1 0 1 1 0 1 1 2 3 3 3 3 3 3 4 3 2 1 1 1 2 2 3 3 3 3 2 3 2 3
2 2 2 2 1 2 2 2 2 2 2 1 1 1 1 1 0 0 1 1 1 2 2 2 2 2 3 3 2 2 1 1 1 1 1 2 2 3 3 3 3 3 3
2 2 2 1 1 1 2 2 2 2 2 2 1 0 1 1 1 0 1 1 1 1 1 1 1 1 2 2 2 1 1 1 1 2 2 2 2 3 3 3 3 4 4
1 1 1 1 1 1 1 2 2 2 2 2 2 1 0 0 0 1 2 1 1 1 0 0 1 1 1 1 1 1 0 1 2 2 3 3 3 3 3 4 4 4 4
1 1 0 1 1 1 1 1 2 2 2 2 1 1 1 1 1 1 2 1 1 1 1 1 1 1 1 0 1 1 1 2 2 2 3 3 3 4 4 4 5 5 5
0 1 0 0 0 1 0 1 1 2 2 2 2 1 1 1 1 1 1 2 2 1 1 1 1 2 2 1 1 2 2 3 2 3 3 3 3 4 4 5 5 5 6
1 1 0 0 0 1 1 0 0 1 2 2 2 2 1 1 1 1 1 1 2 2 1 1 1 1 0 2 2 3 2 3 3 3 4 4 4 4 4 5 6 6 7
1 1 1 1 0 1 0 1 0 1 1 2 2 2 2 1 1 1 1 2 2 2 3 2 0 0 0 1 2 2 2 4 4 4 5 5 5 5 5 5 6 7 7
1 2 2 1 1 1 1 1 0 0 0 1 1 2 1 1 1 1 1 1 1 2 3 2 1 1 1 2 2 2 3 4 5 5 5 5 5 5 5 6 6 7 7
2 2 2 2 2 1 1 1 0 0 0 1 1 1 1 1 1 1 1 1 1 1 3 3 2 2 2 1 1 2 3 3 4 6 6 5 5 6 6 6 7 7 8
2 2 2 2 2 1 1 1 1 1 2 2 2 2 2 2 2 1 1 1 2 2 2 4 3 2 2 2 1 2 2 3 3 5 6 6 6 6 6 7 7 8 8
1 1 2 2 2 2 1 1 1 2 2 2 2 2 2 2 2 2 2 2 2 2 2 3 3 2 2 2 1 2 2 2 4 4 5 5 5 6 6 7 7 8 8
1 2 2 2 2 2 2 2 2 2 2 2 2 2 2 2 2 2 2 2 2 2 2 2 3 2 2 2 1 1 2 2 3 4 4 4 5 6 7 7 7 7 7
1 1 1 2 2 2 2 2 2 2 2 2 2 3 3 4 4 4 3 3 2 2 2 3 3 3 3 2 2 2 3 2 3 2 2 3 4 4 5 7 7 7 7
1 1 2 2 2 2 3 4 3 2 3 3 3 3 3 4 5 6 6 5 5 4 4 4 4 4 4 3 2 2 2 2 3 2 2 4 3 3 4 5 7 8 8
1 2 2 2 2 3 4 4 5 3 3 3 3 3 3 3 3 3 4 5 5 6 6 5 5 6 5 4 3 3 3 3 4 3 2 4 3 4 4 6 8 8 8
2 2 3 3 2 3 5 5 5 3 3 3 3 4 4 3 3 3 3 3 3 4 5 5 5 5 4 4 4 4 4 4 4 3 2 4 3 3 4 6 8 7 7
2 2 2 2 3 3 5 5 4 2 2 3 3 3 4 4 6 6 3 3 4 3 4 5 6 6 6 7 5 2 3 3 4 3 2 2 2 3 3 4 6 7 7
2 2 3 3 3 3 5 5 4 2 2 3 3 3 5 5 7 7 4 3 4 4 3 3 3 4 4 5 6 4 4 4 3 3 2 2 2 1 3 3 3 4 6
Wind_Direction
64 59 66 86 93 82 70 38 45 42 51 62 61 72 78 86 87 92 87 83 73 68 79 84 87 88 85 86 91 91 89 87 84 86 84 79 74 72 70 66 62 59 57
69 67 60 57 69 79 71 63 56 52 60 67 62 54 57 72 86 93 96 92 79 69 70 84 93 95 93 89 86 89 90 88 85 83 82 76 71 71 68 61 55 54 52
83 82 80 64 47 61 83 81 66 67 65 63 61 59 58 58 65 80 90 94 92 78 70 76 87 94 93 89 85 85 84 82 81 80 81 78 73 69 64 60 55 53 49
85 82 87 84 56 51 50 92 99 74 64 55 51 40 58 62 59 70 84 88 91 90 81 72 70 78 85 85 82 79 78 78 77 78 76 71 67 63 56 50 47 47 43
79 75 81 70 69 68 53 89 97 112 101 71 68 38 42 56 65 67 78 80 88 93 91 89 79 71 78 81 77 74 77 73 70 68 68 63 57 55 49 41 39 38 37
62 66 79 70 58 90 70 55 76 74 95 93 73 50 25 55 78 70 76 77 89 89 83 81 83 79 80 80 76 70 70 70 69 63 57 52 44 38 40 33 29 30 32
63 64 69 97 88 126 140 128 105 95 72 67 68 48 357 26 102 100 84 85 81 86 83 80 74 74 80 88 80 72 65 58 54 53 50 44 34 27 26 20 15 17 15
53 80 75 111 125 131 126 124 112 128 145 114 107 113 217 321 328 253 126 118 95 82 82 89 82 83 86 84 85 84 72 50 32 31 27 32 30 22 13 358 351 351 350
47 52 81 88 135 158 167 164 156 155 171 184 100 130 155 217 267 247 215 171 101 75 71 72 83 85 108 101 92 84 57 328 324 326 338 353 358 2 7 3 349 339 332
78 56 56 83 100 143 162 179 171 175 167 183 213 158 154 128 134 237 282 236 155 99 42 50 64 71 90 93 88 75 60 346 298 289 294 311 320 326 339 351 360 4 357
103 79 59 67 73 96 153 171 171 181 182 180 179 182 123 11 161 178 231 250 273 239 305 13 126 137 103 72 103 159 183 282 286 285 294 304 311 317 322 328 338 338 338
150 106 78 102 82 83 120 172 177 176 179 180 170 159 167 179 202 205 233 241 244 256 256 247 163 143 138 137 224 216 220 252 268 278 283 287 300 305 307 313 315 318 323
157 189 27 230 132 95 62 66 172 181 177 184 183 184 191 213 210 210 214 258 272 267 229 234 183 172 177 184 233 230 230 240 258 275 284 287 292 296 299 301 302 306 307
187 185 184 306 47 78 52 59 311 222 185 191 197 188 191 212 213 195 205 218 270 281 241 234 275 129 224 218 227 227 245 241 253 269 278 288 293 289 295 296 294 293 295
173 165 170 167 85 96 150 174 226 260 201 195 205 205 207 210 209 220 206 190 194 249 266 245 215 286 276 257 241 238 256 251 256 267 276 283 286 286 290 293 295 293 289
155 164 180 183 179 182 194 181 209 218 312 231 220 205 216 229 211 214 215 227 210 223 258 279 283 287 263 277 272 272 272 266 266 268 268 274 281 284 287 288 290 293 293
175 178 188 190 186 186 191 206 214 195 239 296 281 239 252 237 221 228 227 226 234 227 254 285 301 303 300 284 301 301 290 271 270 271 269 273 281 285 287 286 288 291 290
198 194 195 192 197 194 198 192 231 237 225 237 254 250 259 253 237 241 230 234 235 236 238 266 284 286 296 275 278 302 300 286 285 280 270 273 278 280 284 285 288 290 287
208 210 203 206 207 206 219 224 230 244 239 240 236 241 251 238 250 253 246 244 255 266 255 249 270 286 297 290 293 298 293 302 291 283 277 274 277 281 284 289 292 291 285
218 224 228 221 217 212 225 235 247 256 252 249 246 241 240 233 233 239 243 240 245 252 250 245 259 276 287 290 254 256 290 295 298 296 285 287 286 285 286 289 290 291 286
237 228 233 231 234 223 221 229 247 248 243 241 240 238 236 234 244 244 247 230 223 234 236 242 246 260 259 268 260 241 261 286 289 275 283 287 284 283 282 287 287 288 290
233 230 232 234 244 256 255 258 264 259 252 245 244 245 242 242 242 250 252 247 234 227 229 238 248 246 252 256 269 262 252 272 278 267 277 284 273 268 277 273 281 286 287
229 235 238 236 242 254 259 263 267 271 258 247 238 243 259 252 251 239 258 261 259 250 241 236 238 245 249 247 246 254 252 255 261 260 267 274 267 271 278 281 284 284 285
232 239 247 243 250 264 266 269 271 270 262 253 240 233 237 245 250 244 247 257 264 258 251 243 233 242 246 237 232 245 247 263 277 275 255 261 265 267 285 283 277 275 282
252 252 252 243 243 259 263 265 269 264 264 269 259 244 238 234 243 250 244 244 259 266 267 253 253 256 261 263 258 249 254 264 275 273 255 246 271 287 280 269 270 274 283
258 262 267 254 245 252 260 263 262 240 247 259 262 255 250 247 247 249 237 228 247 253 252 257 256 262 260 257 260 240 237 252 268 267 245 237 264 292 291 275 273 288 289
Height
1534 1534 1535 1536 1537 1538 1538 1539 1540 1541 1542 1543 1544 1545 1547 1548 1549 1550 1551 1552 1553 1553 1554 1554 1555 1555 1556 1556 1557 1557 1558 1558 1558 1559 1559 1560 1560 1560 1560 1560 1560 1560 1560
1532 1533 1533 1534 1535 1536 1536 1537 1538 1539 1540 1541 1542 1543 1545 1546 1547 1548 1549 1550 1551 1552 1553 1553 1554 1554 1555 1556 1556 1556 1557 1557 1558 1558 1558 1558 1559 1559 1559 1559 1559 1559 1559
1529 1530 1531 1532 1532 1533 1534 1535 1536 1537 1538 1539 1540 1541 1543 1544 1545 1546 1547 1548 1549 1550 1551 1552 1552 1553 1554 1554 1555 1555 1555 1556 1556 1557 1557 1557 1557 1558 1558 1558 1558 1558 1558
1527 1528 1528 1529 1530 1531 1532 1532 1534 1535 1536 1537 1538 1539 1540 1542 1543 1544 1545 1546 1547 1548 1549 1550 1551 1551 1552 1552 1553 1553 1554 1554 1554 1555 1555 1556 1556 1556 1556 1556 1557 1556 1556
1524 1525 1526 1526 1527 1528 1529 1530 1531 1532 1533 1534 1535 1537 1538 1539 1540 1542 1542 1543 1544 1546 1547 1548 1549 1549 1550 1550 1551 1552 1552 1552 1553 1553 1553 1554 1554 1554 1554 1554 1555 1555 1555
1521 1522 1523 1523 1524 1525 1525 1526 1528 1529 1530 1531 1532 1534 1535 1537 1538 1539 1540 1541 1542 1543 1544 1545 1546 1547 1548 1548 1549 1549 1550 1550 1550 1551 1551 1551 1552 1552 1552 1552 1552 1552 1552
1518 1519 1519 1520 1521 1522 1523 1523 1525 1526 1527 1528 1530 1531 1532 1534 1535 1536 1537 1538 1539 1540 1541 1542 1543 1544 1545 1546 1546 1547 1548 1548 1548 1548 1549 1549 1549 1549 1549 1549 1550 1550 1550
1515 1515 1516 1517 1518 1519 1520 1521 1521 1523 1525 1526 1527 1528 1530 1532 1532 1533 1534 1535 1536 1537 1538 1540 1540 1541 1542 1543 1544 1544 1545 1545 1546 1546 1546 1546 1547 1547 1547 1547 1547 1547 1547
1511 1512 1513 1514 1515 1516 1517 1518 1519 1520 1522 1524 1525 1527 1528 1528 1529 1530 1531 1533 1534 1534 1535 1536 1537 1538 1539 1540 1540 1541 1541 1542 1543 1543 1543 1543 1544 1544 1544 1544 1544 1544 1544
1509 1509 1510 1511 1512 1513 1514 1515 1516 1518 1519 1520 1522 1523 1525 1526 1527 1527 1528 1529 1530 1531 1532 1533 1534 1534 1535 1536 1537 1538 1538 1539 1539 1540 1540 1540 1540 1540 1540 1541 1540 1541 1541
1506 1507 1508 1508 1509 1509 1510 1512 1513 1515 1516 1517 1518 1520 1521 1522 1524 1524 1524 1525 1527 1528 1528 1530 1530 1531 1532 1532 1533 1534 1535 1535 1536 1536 1536 1537 1537 1537 1537 1537 1537 1537 1537
1503 1504 1505 1506 1506 1507 1508 1509 1510 1512 1513 1514 1516 1517 1518 1519 1520 1521 1521 1522 1523 1524 1525 1526 1527 1528 1528 1529 1530 1530 1531 1532 1532 1532 1533 1533 1533 1533 1533 1533 1533 1533 1533
1499 1501 1502 1502 1503 1504 1505 1505 1507 1508 1509 1511 1512 1513 1515 1516 1517 1518 1519 1519 1519 1520 1521 1522 1523 1524 1525 1525 1526 1527 1527 1528 1528 1528 1529 1529 1529 1529 1529 1529 1529 1529 1529
1497 1498 1499 1499 1500 1501 1502 1503 1504 1505 1506 1507 1509 1510 1511 1512 1514 1514 1515 1516 1516 1516 1517 1518 1519 1520 1520 1521 1522 1522 1523 1524 1524 1524 1525 1525 1525 1525 1525 1525 1525 1525 1524
1494 1495 1496 1496 1497 1498 1499 1500 1500 1501 1502 1503 1505 1506 1507 1508 1510 1511 1512 1513 1514 1513 1513 1514 1515 1515 1516 1517 1517 1518 1519 1519 1520 1520 1521 1521 1521 1521 1521 1520 1520 1520 1520
1492 1492 1493 1493 1494 1494 1495 1496 1497 1498 1499 1500 1501 1502 1503 1504 1505 1506 1507 1509 1510 1510 1510 1510 1510 1512 1513 1513 1513 1514 1514 1515 1516 1516 1516 1516 1516 1516 1516 1516 1516 1515 1515
1488 1489 1489 1490 1490 1491 1492 1493 1494 1495 1495 1496 1497 1498 1499 1501 1501 1502 1503 1504 1506 1507 1506 1506 1507 1507 1508 1509 1509 1509 1510 1510 1511 1511 1512 1512 1512 1512 1511 1511 1511 1510 1510
1485 1485 1486 1486 1487 1487 1488 1489 1490 1491 1492 1492 1493 1494 1496 1497 1497 1498 1499 1500 1501 1502 1503 1502 1502 1503 1503 1504 1504 1505 1505 1506 1506 1506 1507 1507 1507 1507 1506 1506 1505 1505 1505
1481 1481 1482 1483 1483 1484 1484 1485 1486 1487 1488 1489 1490 1491 1492 1492 1493 1494 1495 1495 1496 1497 1498 1498 1498 1498 1498 1499 1499 1500 1500 1501 1501 1501 1501 1502 1502 1502 1501 1501 1500 1500 1499
1477 1478 1478 1479 1479 1480 1481 1481 1482 1483 1484 1485 1486 1487 1488 1488 1489 1490 1490 1491 1492 1492 1493 1493 1493 1493 1494 1494 1494 1494 1495 1496 1496 1497 1497 1497 1497 1496 1496 1496 1495 1495 1494
1473 1474 1474 1475 1476 1476 1477 1477 1478 1479 1480 1480 1481 1483 1483 1484 1485 1486 1486 1486 1487 1488 1488 1488 1488 1489 1489 1489 1489 1490 1490 1491 1491 1492 1492 1491 1491 1491 1491 1491 1490 1490 1490
1469 1469 1470 1470 1471 1471 1473 1473 1474 1475 1475 1476 1477 1478 1478 1479 1480 1481 1482 1482 1483 1483 1483 1483 1483 1483 1484 1485 1485 1486 1486 1486 1486 1487 1487 1486 1486 1486 1486 1486 1485 1485 1485
1464 1465 1465 1466 1466 1467 1468 1469 1470 1470 1471 1471 1472 1473 1473 1474 1475 1476 1476 1477 1477 1478 1479 1479 1479 1479 1480 1480 1481 1481 1481 1481 1481 1481 1482 1480 1481 1480 1481 1480 1480 1480 1480
1461 1461 1461 1461 1462 1463 1463 1464 1465 1465 1466 1466 1467 1468 1469 1469 1470 1471 1471 1472 1472 1472 1473 1474 1475 1475 1475 1476 1476 1477 1477 1476 1476 1477 1477 1475 1475 1475 1475 1474 1474 1474 1474
1456 1456 1456 1457 1457 1458 1459 1460 1461 1460 1461 1462 1462 1463 1464 1464 1465 1466 1466 1466 1467 1467 1468 1469 1469 1470 1470 1471 1472 1472 1472 1472 1471 1470 1471 1471 1469 1469 1468 1468 1469 1469 1468
1452 1452 1452 1453 1453 1454 1454 1455 1456 1456 1456 1456 1457 1458 1459 1460 1460 1461 1461 1461 1461 1462 1463 1463 1464 1464 1465 1465 1466 1467 1467 1467 1466 1465 1465 1466 1465 1464 1463 1462 1463 1463 1463